{"data":{"norad_id":52110,"intl_designator":"2022-029Y","name":"STARLINK-3687","alt_names":[],"object_type":"PAYLOAD","status":"ACTIVE","operator":null,"country":"US","launch_date":"2022-03-19","launch_site_code":"AFETR","launch_vehicle":null,"mission":null,"orbit_class":"UNKNOWN","rcs_meters":null,"size_class":null,"mass_kg":null,"dimensions":null,"purposes":["comms"],"wikipedia_slug":null,"has_3d_model":false,"image_url":null,"decayed_at":null,"tle_current":{"epoch":"2026-09-20T01:10:01.618176Z","epoch_age_seconds":95254,"freshness":"FRESH","line1":"1 52110U 22029Y   26263.04862984  .00000694  00000+0  32439-4 0  9997","line2":"2 52110  53.1584 271.9722 0001079  92.5514 267.5612 15.33531355250325","mean_motion":15.33531355,"eccentricity":0.0001079,"inclination_deg":53.1584,"raan_deg":271.9722,"arg_perigee_deg":92.5514,"mean_anomaly_deg":267.5612,"bstar":3.2439e-5,"rev_number":25032,"period_min":93.900916685202,"perigee_km":464.5478494417,"apogee_km":466.02466018009,"semimajor_km":6843.4232548109,"source":"CELESTRAK","updated_at":"2026-09-20T09:00:39.987377Z"}}}